Regional Weather Roundup
Issued by NWS Sterling, VA

Home | Current Version | Previous Version | Graphics & Text | Print | Product List | Glossary On
Versions: 1 2 3 4 5 6 7 8 9 10 11 12 13 14 15 16 17 18 19 20 21 22 23 24 25 26 27 28 29 30 31 32 33 34 35 36 37 38 39 40 41 42 43 44 45 46 47 48 49 50
000
ASUS41 KLWX 310310
RWRLWX

REGIONAL WEATHER ROUNDUP
NATIONAL WEATHER SERVICE BALTIMORE MD/WASHINGTON DC
1100 PM EDT WED JUL 30 2014

Note: "FAIR" indicates few or no clouds below 12,000 feet
with no significant weather and/or obstructions to visibility.
 TC=TEMPERATURE CELSIUS

 * =Non NWS site. Station does not report precipitation (e.g. rain,
    snow, etc.), thunder, or fog.

DCZ001-MDZ009-015-VAZ040>042-051-053>054-310400-
WASHINGTON METRO
  /KDAA//-FT BELVOIR

CITY           SKY/WX    TMP DP  RH WIND       PRES   REMARKS
WASHINGTON NAT PTCLDY    73  55  53 S6        30.06F
DULLES         PTCLDY    66  55  67 S3        30.06F
ANDREWS AFB    CLEAR     64  57  78 S6        30.06F
QUANTICO       CLEAR     66  62  87 W6        30.07S
COLLEGE PARK*  CLEAR     64  57  77 CALM      30.06S
LEESBURG*      CLEAR     64  61  88 SW5       30.07S
GAITHERSBURG*  PTCLDY    63  54  72 CALM      30.10S

$$

MDZ006>007-011-014-310400-
BALTIMORE METRO

CITY           SKY/WX    TMP DP  RH WIND       PRES   REMARKS
BWI AIRPORT    PTCLDY    64  56  75 CALM      30.05S
MD SCIENCE CTR   N/A     72  55  55 MISG      30.06S
MARTIN STATE   CLEAR     72  59  64 S3        30.07S
ANNAPOLIS      CLEAR     70  55  59 CALM      30.05F
FORT MEADE*    CLEAR     59  57  94 CALM      30.08S

$$

MDZ012-015-019>023-310400-
MARYLAND EASTERN SHORE

CITY           SKY/WX    TMP DP  RH WIND       PRES   REMARKS
OCEAN CITY     CLEAR     58  57  97 CALM      30.08S
SALISBURY      CLEAR     63  55  75 CALM      30.08S
BAY BRIDGE AP*   N/A     72  54  53 S5        30.06F
CAMBRIDGE*     CLEAR     63  55  77 CALM      30.07S
EASTON*        CLEAR     69  58  68 CALM      30.10

$$

MDZ017>025-310400-
SOUTHERN MARYLAND

CITY           SKY/WX    TMP DP  RH WIND       PRES   REMARKS
PATUXENT RIVER CLEAR     67  57  70 S6        30.07S
ST INIGOES     CLEAR     62  56  80 CALM      30.07S
LEONARDTOWN*   CLEAR     61  54  77 CALM      30.09S

$$

MDZ003>005-310400-
NORTH CENTRAL MARYLAND

CITY           SKY/WX    TMP DP  RH WIND       PRES   REMARKS
FREDERICK*     PTCLDY    64  61  88 CALM      30.08S
HAGERSTOWN APT LGT RAIN  67  58  72 NW7       30.07R
WESTMINSTER*   PTCLDY    66  59  77 CALM      30.07S

$$

MDZ501>502-310400-
WESTERN MARYLAND

CITY           SKY/WX    TMP DP  RH WIND       PRES   REMARKS
OAKLAND*       PTCLDY    55 N/A N/A SW3       30.13S
CUMBERLAND*    PTCLDY    64  59  82 CALM      30.11S

$$

VAZ025>031-310400-
SHENANDOAH VALLEY

CITY           SKY/WX    TMP DP  RH WIND       PRES   REMARKS
WINCHESTER*    PTCLDY    66  55  68 SW5       30.06S
STAUNTON*      PTCLDY    61  56  82 CALM      30.11S

$$

WVZ021-048>050-054>055-310400-
EASTERN WEST VIRGINIA PANHANDLE

CITY           SKY/WX    TMP DP  RH WIND       PRES   REMARKS
MARTINSBURG    CLOUDY    69  56  62 N7        30.07R
PETERSBURG*    CLOUDY    62  57  82 CALM      30.09S

$$

VAZ036>039-050-310400-
CENTRAL FOOTHILLS

CITY           SKY/WX    TMP DP  RH WIND       PRES   REMARKS
CHARLOTTESVILL PTCLDY    65  58  78 CALM      30.07S
ORANGE*        PTCLDY    63  59  88 CALM      30.09S

$$

VAZ055>057-310400-
NORTH AND CENTRAL PIEDMONT

CITY           SKY/WX    TMP DP  RH WIND       PRES   REMARKS
FREDERICKSBRG* CLEAR     65  60  82 CALM      30.06S
STAFFORD*      CLEAR     60  60 100 CALM      30.10S

$$

NCZ024-NYZ072-PAZ021-071-VAZ022-071-310400-
OTHER REGIONAL OBSERVATIONS

CITY           SKY/WX    TMP DP  RH WIND       PRES   REMARKS
NEW YORK CITY  CLEAR     72  56  57 VRB6      30.07S
PHILADELPHIA   CLEAR     73  54  51 SW9       30.06S
PITTSBURGH     PTCLDY    61  57  87 CALM      30.06S
ROANOKE        PTCLDY    67  57  70 CALM      30.12S
RICHMOND       CLEAR     70  59  68 CALM      30.08S
RALEIGH        MOCLDY    70  65  84 CALM      30.09S

$$

ANZ530>537-310400-
MARINE OBSERVATIONS

STATION/POSITION TIME  TEMP    WIND        PRES
                       AIR SEA DIR/SP/G
                 (UTC) (F)     (DEG/KT/KT) (MB)
THOMAS PT LIGHT  0300   75 77  210/  8/  9 1018.2F
BALT KEY BRIDGE  0300   72     190/  7/  9 1017.3F
COVE POINT       0300   72     210/  2/  3 1018.0S
LEWISETTA        0300   71 78  190/  2/  3 1018.1F
SOLOMONS ISLAND  0300      80                N/A
PINEY POINT      0300          180/  9/ 10   N/A

$$




USA.gov is the U.S. government's official web portal to all federal, state and local government web resources and services.